Year,Month,Day,Hour,Minute,Value (Times are PST for temperature in C)
2018,09,29,00,00,12.70
2018,09,29,00,01,12.70
2018,09,29,00,02,12.70
2018,09,29,00,03,12.70
2018,09,29,00,04,12.70
2018,09,29,00,05,12.70
2018,09,29,00,06,12.70
2018,09,29,00,07,12.70
2018,09,29,00,08,12.70
2018,09,29,00,09,12.70
2018,09,29,00,10,12.70
2018,09,29,00,11,12.60
2018,09,29,00,12,12.60
2018,09,29,00,13,12.60
2018,09,29,00,14,12.60
2018,09,29,00,15,12.60
2018,09,29,00,16,12.60
2018,09,29,00,17,12.70
2018,09,29,00,18,12.70
2018,09,29,00,19,12.60
2018,09,29,00,20,12.60
2018,09,29,00,21,12.60
2018,09,29,00,22,12.50
2018,09,29,00,23,12.50
2018,09,29,00,24,12.50
2018,09,29,00,25,12.50
2018,09,29,00,26,12.50
2018,09,29,00,27,12.50
2018,09,29,00,28,12.50
2018,09,29,00,29,12.50
2018,09,29,00,30,12.40
2018,09,29,00,31,12.50
2018,09,29,00,32,12.40
2018,09,29,00,33,12.40
2018,09,29,00,34,12.40
2018,09,29,00,35,12.40
2018,09,29,00,36,12.40
2018,09,29,00,37,12.40
2018,09,29,00,38,12.40
2018,09,29,00,39,12.40
2018,09,29,00,40,12.40
2018,09,29,00,41,12.40
2018,09,29,00,42,12.40
2018,09,29,00,43,12.40
2018,09,29,00,44,12.40
2018,09,29,00,45,12.40
2018,09,29,00,46,12.30
2018,09,29,00,47,12.30
2018,09,29,00,48,12.30
2018,09,29,00,49,12.30
2018,09,29,00,50,12.30
2018,09,29,00,51,12.30
2018,09,29,00,52,12.30
2018,09,29,00,53,12.30
2018,09,29,00,54,12.30
2018,09,29,00,55,12.20
2018,09,29,00,56,12.30
2018,09,29,00,57,12.30
2018,09,29,00,58,12.30
2018,09,29,00,59,12.30
2018,09,29,01,00,12.30
2018,09,29,01,01,12.30
2018,09,29,01,02,12.30
2018,09,29,01,03,12.30
2018,09,29,01,04,12.30
2018,09,29,01,05,12.30
2018,09,29,01,06,12.30
2018,09,29,01,07,12.30
2018,09,29,01,08,12.30
2018,09,29,01,09,12.30
2018,09,29,01,10,12.30
2018,09,29,01,11,12.30
2018,09,29,01,12,12.30
2018,09,29,01,13,12.30
2018,09,29,01,14,12.30
2018,09,29,01,15,12.30
2018,09,29,01,16,12.30
2018,09,29,01,17,12.30
2018,09,29,01,18,12.30
2018,09,29,01,19,12.30
2018,09,29,01,20,12.30
2018,09,29,01,21,12.30
2018,09,29,01,22,12.30
2018,09,29,01,23,12.30
2018,09,29,01,24,12.30
2018,09,29,01,25,12.30
2018,09,29,01,26,12.20
2018,09,29,01,27,12.20
2018,09,29,01,28,12.20
2018,09,29,01,29,12.20
2018,09,29,01,30,12.20
2018,09,29,01,31,12.20
2018,09,29,01,32,12.10
2018,09,29,01,33,12.10
2018,09,29,01,34,12.10
2018,09,29,01,35,12.10
2018,09,29,01,36,12.10
2018,09,29,01,37,12.10
2018,09,29,01,38,12.00
2018,09,29,01,39,12.00
2018,09,29,01,40,12.00
2018,09,29,01,41,11.90
2018,09,29,01,42,11.90
2018,09,29,01,43,11.80
2018,09,29,01,44,11.80
2018,09,29,01,45,11.80
2018,09,29,01,46,11.80
2018,09,29,01,47,11.80
2018,09,29,01,48,11.80
2018,09,29,01,49,11.80
2018,09,29,01,50,11.80
2018,09,29,01,51,11.70
2018,09,29,01,52,11.70
2018,09,29,01,53,11.70
2018,09,29,01,54,11.70
2018,09,29,01,55,11.70
2018,09,29,01,56,11.60
2018,09,29,01,57,11.60
2018,09,29,01,58,11.60
2018,09,29,01,59,11.70
2018,09,29,02,00,11.70
2018,09,29,02,01,11.70
2018,09,29,02,02,11.70
2018,09,29,02,03,11.70
2018,09,29,02,04,11.70
2018,09,29,02,05,11.70
2018,09,29,02,06,11.70
2018,09,29,02,07,11.70
2018,09,29,02,08,11.70
2018,09,29,02,09,11.70
2018,09,29,02,10,11.70
2018,09,29,02,11,11.70
2018,09,29,02,12,11.70
2018,09,29,02,13,11.70
2018,09,29,02,14,11.60
2018,09,29,02,15,11.60
2018,09,29,02,16,11.60
2018,09,29,02,17,11.60
2018,09,29,02,18,11.60
2018,09,29,02,19,11.50
2018,09,29,02,20,11.50
2018,09,29,02,21,11.40
2018,09,29,02,22,11.40
2018,09,29,02,23,11.40
2018,09,29,02,24,11.40
2018,09,29,02,25,11.40
2018,09,29,02,26,11.40
2018,09,29,02,27,11.40
2018,09,29,02,28,11.50
2018,09,29,02,29,11.50
2018,09,29,02,30,11.50
2018,09,29,02,31,11.50
2018,09,29,02,32,11.50
2018,09,29,02,33,11.50
2018,09,29,02,34,11.50
2018,09,29,02,35,11.50
2018,09,29,02,36,11.50
2018,09,29,02,37,11.40
2018,09,29,02,38,11.30
2018,09,29,02,39,11.30
2018,09,29,02,40,11.30
2018,09,29,02,41,11.20
2018,09,29,02,42,11.20
2018,09,29,02,43,11.20
2018,09,29,02,44,11.10
2018,09,29,02,45,11.10
2018,09,29,02,46,11.10
2018,09,29,02,47,11.10
2018,09,29,02,48,11.10
2018,09,29,02,49,11.10
2018,09,29,02,50,11.10
2018,09,29,02,51,11.00
2018,09,29,02,52,11.00
2018,09,29,02,53,11.00
2018,09,29,02,54,11.00
2018,09,29,02,55,11.00
2018,09,29,02,56,11.00
2018,09,29,02,57,11.00
2018,09,29,02,58,10.90
2018,09,29,02,59,10.90
2018,09,29,03,00,10.90
2018,09,29,03,01,10.90
2018,09,29,03,02,10.80
2018,09,29,03,03,10.80
2018,09,29,03,04,10.80
2018,09,29,03,05,10.80
2018,09,29,03,06,10.80
2018,09,29,03,07,10.90
2018,09,29,03,08,10.90
2018,09,29,03,09,10.90
2018,09,29,03,10,10.90
2018,09,29,03,11,10.80
2018,09,29,03,12,10.80
2018,09,29,03,13,10.80
2018,09,29,03,14,10.80
2018,09,29,03,15,10.80
2018,09,29,03,16,10.80
2018,09,29,03,17,10.80
2018,09,29,03,18,10.80
2018,09,29,03,19,10.70
2018,09,29,03,20,10.70
2018,09,29,03,21,10.70
2018,09,29,03,22,10.70
2018,09,29,03,23,10.70
2018,09,29,03,24,10.70
2018,09,29,03,25,10.70
2018,09,29,03,26,10.70
2018,09,29,03,27,10.60
2018,09,29,03,28,10.70
2018,09,29,03,29,10.70
2018,09,29,03,30,10.70
2018,09,29,03,31,10.70
2018,09,29,03,32,10.70
2018,09,29,03,33,10.80
2018,09,29,03,34,10.80
2018,09,29,03,35,10.90
2018,09,29,03,36,11.00
2018,09,29,03,37,11.00
2018,09,29,03,38,11.10
2018,09,29,03,39,11.10
2018,09,29,03,40,11.10
2018,09,29,03,41,11.20
2018,09,29,03,42,11.20
2018,09,29,03,43,11.20
2018,09,29,03,44,11.20
2018,09,29,03,45,11.30
2018,09,29,03,46,11.20
2018,09,29,03,47,11.20
2018,09,29,03,48,11.20
2018,09,29,03,49,11.20
2018,09,29,03,50,11.20
2018,09,29,03,51,11.10
2018,09,29,03,52,11.00
2018,09,29,03,53,11.00
2018,09,29,03,54,10.90
2018,09,29,03,55,11.00
2018,09,29,03,56,11.00
2018,09,29,03,57,11.20
2018,09,29,03,58,11.30
2018,09,29,03,59,11.40
2018,09,29,04,00,11.50
2018,09,29,04,01,11.50
2018,09,29,04,02,11.60
2018,09,29,04,03,11.60
2018,09,29,04,04,11.70
2018,09,29,04,05,11.70
2018,09,29,04,06,11.80
2018,09,29,04,07,11.80
2018,09,29,04,08,11.80
2018,09,29,04,09,11.80
2018,09,29,04,10,11.90
2018,09,29,04,11,12.00
2018,09,29,04,12,12.10
2018,09,29,04,13,12.10
2018,09,29,04,14,12.10
2018,09,29,04,15,12.30
2018,09,29,04,16,12.40
2018,09,29,04,17,12.60
2018,09,29,04,18,12.70
2018,09,29,04,19,12.80
2018,09,29,04,20,12.90
2018,09,29,04,21,12.90
2018,09,29,04,22,12.90
2018,09,29,04,23,12.90
2018,09,29,04,24,13.00
2018,09,29,04,25,13.00
2018,09,29,04,26,13.10
2018,09,29,04,27,13.10
2018,09,29,04,28,13.20
2018,09,29,04,29,13.20
2018,09,29,04,30,13.20
2018,09,29,04,31,13.20
2018,09,29,04,32,13.20
2018,09,29,04,33,13.30
2018,09,29,04,34,13.50
2018,09,29,04,35,13.70
2018,09,29,04,36,13.80
2018,09,29,04,37,13.80
2018,09,29,04,38,13.80
2018,09,29,04,39,13.80
2018,09,29,04,40,13.70
2018,09,29,04,41,13.50
2018,09,29,04,42,13.30
2018,09,29,04,43,13.20
2018,09,29,04,44,13.20
2018,09,29,04,45,13.20
2018,09,29,04,46,13.40
2018,09,29,04,47,13.50
2018,09,29,04,48,13.70
2018,09,29,04,49,14.00
2018,09,29,04,50,14.10
2018,09,29,04,51,14.10
2018,09,29,04,52,14.00
2018,09,29,04,53,14.10
2018,09,29,04,54,14.30
2018,09,29,04,55,14.40
2018,09,29,04,56,14.30
2018,09,29,04,57,14.20
2018,09,29,04,58,14.20
2018,09,29,04,59,14.30
2018,09,29,05,00,14.30
2018,09,29,05,01,14.30
2018,09,29,05,02,14.30
2018,09,29,05,03,14.10
2018,09,29,05,04,14.10
2018,09,29,05,05,14.10
2018,09,29,05,06,14.30
2018,09,29,05,07,14.60
2018,09,29,05,08,14.70
2018,09,29,05,09,14.70
2018,09,29,05,10,14.70
2018,09,29,05,11,14.90
2018,09,29,05,12,15.20
2018,09,29,05,13,15.40
2018,09,29,05,14,15.60
2018,09,29,05,15,15.90
2018,09,29,05,16,16.20
2018,09,29,05,17,16.40
2018,09,29,05,18,16.60
2018,09,29,05,19,16.80
2018,09,29,05,20,16.90
2018,09,29,05,21,17.10
2018,09,29,05,22,17.10
2018,09,29,05,23,17.10
2018,09,29,05,24,17.10
2018,09,29,05,25,17.10
2018,09,29,05,26,17.10
2018,09,29,05,27,17.10
2018,09,29,05,28,17.20
2018,09,29,05,29,17.20
2018,09,29,05,30,17.20
2018,09,29,05,31,17.30
2018,09,29,05,32,17.40
2018,09,29,05,33,17.40
2018,09,29,05,34,17.60
2018,09,29,05,35,17.60
2018,09,29,05,36,17.70
2018,09,29,05,37,17.80
2018,09,29,05,38,17.90
2018,09,29,05,39,18.00
2018,09,29,05,40,18.00
2018,09,29,05,41,18.10
2018,09,29,05,42,18.10
2018,09,29,05,43,18.10
2018,09,29,05,44,18.10
2018,09,29,05,45,18.10
2018,09,29,05,46,18.20
2018,09,29,05,47,18.30
2018,09,29,05,48,18.40
2018,09,29,05,49,18.50
2018,09,29,05,50,18.60
2018,09,29,05,51,18.60
2018,09,29,05,52,18.60
2018,09,29,05,53,18.50
2018,09,29,05,54,18.60
2018,09,29,05,55,18.60
2018,09,29,05,56,18.60
2018,09,29,05,57,18.60
2018,09,29,05,58,18.60
2018,09,29,05,59,18.50
2018,09,29,06,00,18.40
2018,09,29,06,01,18.40
2018,09,29,06,02,18.40
2018,09,29,06,03,18.40
2018,09,29,06,04,18.50
2018,09,29,06,05,18.60
2018,09,29,06,06,18.60
2018,09,29,06,07,18.70
2018,09,29,06,08,18.70
2018,09,29,06,09,18.80
2018,09,29,06,10,18.80
2018,09,29,06,11,18.80
2018,09,29,06,12,18.70
2018,09,29,06,13,18.60
2018,09,29,06,14,18.60
2018,09,29,06,15,18.60
2018,09,29,06,16,18.60
2018,09,29,06,17,18.60
2018,09,29,06,18,18.70
2018,09,29,06,19,18.70
2018,09,29,06,20,18.80
2018,09,29,06,21,18.80
2018,09,29,06,22,18.80
2018,09,29,06,23,18.70
2018,09,29,06,24,18.60
2018,09,29,06,25,18.60
2018,09,29,06,26,18.50
2018,09,29,06,27,18.40
2018,09,29,06,28,18.40
2018,09,29,06,29,18.40
2018,09,29,06,30,18.40
2018,09,29,06,31,18.30
2018,09,29,06,32,18.40
2018,09,29,06,33,18.40
2018,09,29,06,34,18.50
2018,09,29,06,35,18.40
2018,09,29,06,36,18.40
2018,09,29,06,37,18.40
2018,09,29,06,38,18.40
2018,09,29,06,39,18.40
2018,09,29,06,40,18.40
2018,09,29,06,41,18.40
2018,09,29,06,42,18.30
2018,09,29,06,43,18.30
2018,09,29,06,44,18.40
2018,09,29,06,45,18.40
2018,09,29,06,46,18.40
2018,09,29,06,47,18.40
2018,09,29,06,48,18.40
2018,09,29,06,49,18.40
2018,09,29,06,50,18.40
2018,09,29,06,51,18.30
2018,09,29,06,52,18.40
2018,09,29,06,53,18.50
2018,09,29,06,54,18.50
2018,09,29,06,55,18.60
2018,09,29,06,56,18.60
2018,09,29,06,57,18.60
2018,09,29,06,58,18.60
2018,09,29,06,59,18.60
2018,09,29,07,00,18.70
2018,09,29,07,01,18.70
2018,09,29,07,02,18.70
2018,09,29,07,03,18.70
2018,09,29,07,04,18.70
2018,09,29,07,05,18.70
2018,09,29,07,06,18.70
2018,09,29,07,07,18.70
2018,09,29,07,08,18.70
2018,09,29,07,09,18.60
2018,09,29,07,10,18.50
2018,09,29,07,11,18.50
2018,09,29,07,12,18.40
2018,09,29,07,13,18.30
2018,09,29,07,14,18.20
2018,09,29,07,15,18.20
2018,09,29,07,16,18.20
2018,09,29,07,17,18.30
2018,09,29,07,18,18.30
2018,09,29,07,19,18.20
2018,09,29,07,20,18.20
2018,09,29,07,21,18.20
2018,09,29,07,22,18.10
2018,09,29,07,23,18.00
2018,09,29,07,24,18.00
2018,09,29,07,25,18.00
2018,09,29,07,26,17.90
2018,09,29,07,27,17.90
2018,09,29,07,28,18.00
2018,09,29,07,29,18.10
2018,09,29,07,30,18.20
2018,09,29,07,31,18.30
2018,09,29,07,32,18.40
2018,09,29,07,33,18.50
2018,09,29,07,34,18.50
2018,09,29,07,35,18.60
2018,09,29,07,36,18.50
2018,09,29,07,37,18.50
2018,09,29,07,38,18.60
2018,09,29,07,39,18.60
2018,09,29,07,40,18.50
2018,09,29,07,41,18.40
2018,09,29,07,42,18.40
2018,09,29,07,43,18.40
2018,09,29,07,44,18.50
2018,09,29,07,45,18.60
2018,09,29,07,46,18.70
2018,09,29,07,47,18.70
2018,09,29,07,48,18.60
2018,09,29,07,49,18.60
2018,09,29,07,50,18.50
2018,09,29,07,51,18.50
2018,09,29,07,52,18.50
2018,09,29,07,53,18.50
2018,09,29,07,54,18.50
2018,09,29,07,55,18.40
2018,09,29,07,56,18.50
2018,09,29,07,57,18.50
2018,09,29,07,58,18.60
2018,09,29,07,59,18.50
2018,09,29,08,00,18.50
2018,09,29,08,01,18.50
2018,09,29,08,02,18.60
2018,09,29,08,03,18.60
2018,09,29,08,04,18.70
2018,09,29,08,05,18.70
2018,09,29,08,06,18.70
2018,09,29,08,07,18.70
2018,09,29,08,08,18.70
2018,09,29,08,09,18.70
2018,09,29,08,10,18.60
2018,09,29,08,11,18.60
2018,09,29,08,12,18.60
2018,09,29,08,13,18.60
2018,09,29,08,14,18.60
2018,09,29,08,15,18.60
2018,09,29,08,16,18.70
2018,09,29,08,17,18.70
2018,09,29,08,18,18.70
2018,09,29,08,19,18.80
2018,09,29,08,20,18.80
2018,09,29,08,21,18.80
2018,09,29,08,22,18.80
2018,09,29,08,23,18.80
2018,09,29,08,24,18.80
2018,09,29,08,25,18.80
2018,09,29,08,26,18.70
2018,09,29,08,27,18.60
2018,09,29,08,28,18.60
2018,09,29,08,29,18.60
2018,09,29,08,30,18.60
2018,09,29,08,31,18.70
2018,09,29,08,32,18.70
2018,09,29,08,33,18.80
2018,09,29,08,34,18.80
2018,09,29,08,35,18.80
2018,09,29,08,36,18.80
2018,09,29,08,37,18.80
2018,09,29,08,38,18.80
2018,09,29,08,39,18.80
2018,09,29,08,40,18.80
2018,09,29,08,41,18.80
2018,09,29,08,42,18.70
2018,09,29,08,43,18.70
2018,09,29,08,44,18.70
2018,09,29,08,45,18.70
2018,09,29,08,46,18.80
2018,09,29,08,47,18.90
2018,09,29,08,48,19.00
2018,09,29,08,49,19.10
2018,09,29,08,50,19.10
2018,09,29,08,51,19.10
2018,09,29,08,52,19.20
2018,09,29,08,53,19.20
2018,09,29,08,54,19.30
2018,09,29,08,55,19.30
2018,09,29,08,56,19.40
2018,09,29,08,57,19.40
2018,09,29,08,58,19.40
2018,09,29,08,59,19.40
2018,09,29,09,00,19.50
2018,09,29,09,01,19.50
2018,09,29,09,02,19.60
2018,09,29,09,03,19.60
2018,09,29,09,04,19.60
2018,09,29,09,05,19.60
2018,09,29,09,06,19.70
2018,09,29,09,07,19.70
2018,09,29,09,08,19.80
2018,09,29,09,09,19.80
2018,09,29,09,10,19.90
2018,09,29,09,11,20.00
2018,09,29,09,12,20.10
2018,09,29,09,13,20.10
2018,09,29,09,14,20.20
2018,09,29,09,15,20.20
2018,09,29,09,16,20.30
2018,09,29,09,17,20.40
2018,09,29,09,18,20.40
2018,09,29,09,19,20.50
2018,09,29,09,20,20.40
2018,09,29,09,21,20.50
2018,09,29,09,22,20.50
2018,09,29,09,23,20.50
2018,09,29,09,24,20.40
2018,09,29,09,25,20.40
2018,09,29,09,26,20.40
2018,09,29,09,27,20.40
2018,09,29,09,28,20.30
2018,09,29,09,29,20.30
2018,09,29,09,30,20.30
2018,09,29,09,31,20.20
2018,09,29,09,32,20.20
2018,09,29,09,33,20.20
2018,09,29,09,34,20.10
2018,09,29,09,35,20.10
2018,09,29,09,36,20.10
2018,09,29,09,37,20.10
2018,09,29,09,38,20.10
2018,09,29,09,39,20.10
2018,09,29,09,40,20.10
2018,09,29,09,41,20.10
2018,09,29,09,42,20.10
2018,09,29,09,43,20.20
2018,09,29,09,44,20.30
2018,09,29,09,45,20.40
2018,09,29,09,46,20.50
2018,09,29,09,47,20.60
2018,09,29,09,48,20.70
2018,09,29,09,49,20.70
2018,09,29,09,50,20.70
2018,09,29,09,51,20.80
2018,09,29,09,52,20.90
2018,09,29,09,53,20.90
2018,09,29,09,54,21.00
2018,09,29,09,55,21.00
2018,09,29,09,56,21.00
2018,09,29,09,57,20.90
2018,09,29,09,58,20.70
2018,09,29,09,59,20.70
2018,09,29,10,00,20.60
2018,09,29,10,01,20.60
2018,09,29,10,02,20.60
2018,09,29,10,03,20.50
2018,09,29,10,04,20.50
2018,09,29,10,05,20.40
2018,09,29,10,06,20.40
2018,09,29,10,07,20.40
2018,09,29,10,08,20.40
2018,09,29,10,09,20.30
2018,09,29,10,10,20.20
2018,09,29,10,11,20.20
2018,09,29,10,12,20.20
2018,09,29,10,13,20.20
2018,09,29,10,14,20.10
2018,09,29,10,15,20.10
2018,09,29,10,16,20.10
2018,09,29,10,17,20.00
2018,09,29,10,18,20.00
2018,09,29,10,19,20.00
2018,09,29,10,20,20.00
2018,09,29,10,21,20.00
2018,09,29,10,22,20.00
2018,09,29,10,23,20.00
2018,09,29,10,24,20.10
2018,09,29,10,25,20.10
2018,09,29,10,26,20.10
2018,09,29,10,27,20.10
2018,09,29,10,28,20.10
2018,09,29,10,29,20.10
2018,09,29,10,30,20.10
2018,09,29,10,31,20.10
2018,09,29,10,32,20.10
2018,09,29,10,33,20.10
2018,09,29,10,34,20.10
2018,09,29,10,35,20.10
2018,09,29,10,36,20.10
2018,09,29,10,37,20.10
2018,09,29,10,38,20.10
2018,09,29,10,39,20.10
2018,09,29,10,40,20.10
2018,09,29,10,41,20.00
2018,09,29,10,42,20.00
2018,09,29,10,43,20.00
2018,09,29,10,44,20.00
2018,09,29,10,45,20.00
2018,09,29,10,46,20.10
2018,09,29,10,47,20.10
2018,09,29,10,48,20.10
2018,09,29,10,49,20.10
2018,09,29,10,50,20.10
2018,09,29,10,51,20.10
2018,09,29,10,52,20.10
2018,09,29,10,53,20.10
2018,09,29,10,54,20.10
2018,09,29,10,55,20.10
2018,09,29,10,56,20.10
2018,09,29,10,57,20.10
2018,09,29,10,58,20.10
2018,09,29,10,59,20.20
2018,09,29,11,00,20.20
2018,09,29,11,01,20.20
2018,09,29,11,02,20.20
2018,09,29,11,03,20.20
2018,09,29,11,04,20.20
2018,09,29,11,05,20.20
2018,09,29,11,06,20.20
2018,09,29,11,07,20.30
2018,09,29,11,08,20.30
2018,09,29,11,09,20.30
2018,09,29,11,10,20.20
2018,09,29,11,11,20.20
2018,09,29,11,12,20.20
2018,09,29,11,13,20.20
2018,09,29,11,14,20.20
2018,09,29,11,15,20.30
2018,09,29,11,16,20.30
2018,09,29,11,17,20.30
2018,09,29,11,18,20.30
2018,09,29,11,19,20.30
2018,09,29,11,20,20.30
2018,09,29,11,21,20.30
2018,09,29,11,22,20.30
2018,09,29,11,23,20.40
2018,09,29,11,24,20.40
2018,09,29,11,25,20.40
2018,09,29,11,26,20.40
2018,09,29,11,27,20.40
2018,09,29,11,28,20.40
2018,09,29,11,29,20.40
2018,09,29,11,30,20.40
2018,09,29,11,31,20.40
2018,09,29,11,32,20.40
2018,09,29,11,33,20.40
2018,09,29,11,34,20.40
2018,09,29,11,35,20.40
2018,09,29,11,36,20.50
2018,09,29,11,37,20.60
2018,09,29,11,38,20.60
2018,09,29,11,39,20.70
2018,09,29,11,40,20.80
2018,09,29,11,41,20.90
2018,09,29,11,42,20.90
2018,09,29,11,43,21.00
2018,09,29,11,44,20.90
2018,09,29,11,45,20.80
2018,09,29,11,46,20.80
2018,09,29,11,47,20.80
2018,09,29,11,48,20.80
2018,09,29,11,49,20.90
2018,09,29,11,50,20.90
2018,09,29,11,51,20.90
2018,09,29,11,52,20.80
2018,09,29,11,53,20.80
2018,09,29,11,54,20.70
2018,09,29,11,55,20.70
2018,09,29,11,56,20.70
2018,09,29,11,57,20.70
2018,09,29,11,58,20.60
2018,09,29,11,59,20.60
2018,09,29,12,00,20.50
2018,09,29,12,01,20.40
2018,09,29,12,02,20.30
2018,09,29,12,03,20.30
2018,09,29,12,04,20.20
2018,09,29,12,05,20.20
2018,09,29,12,06,20.10
2018,09,29,12,07,20.10
2018,09,29,12,08,20.10
2018,09,29,12,09,20.00
2018,09,29,12,10,20.00
2018,09,29,12,11,20.00
2018,09,29,12,12,20.00
2018,09,29,12,13,20.00
2018,09,29,12,14,20.00
2018,09,29,12,15,20.00
2018,09,29,12,16,20.00
2018,09,29,12,17,20.00
2018,09,29,12,18,20.00
2018,09,29,12,19,20.00
2018,09,29,12,20,19.90
2018,09,29,12,21,20.00
2018,09,29,12,22,20.00
2018,09,29,12,23,20.00
2018,09,29,12,24,20.00
2018,09,29,12,25,20.00
2018,09,29,12,26,20.00
2018,09,29,12,27,20.00
2018,09,29,12,28,20.00
2018,09,29,12,29,20.00
2018,09,29,12,30,19.90
2018,09,29,12,31,19.90
2018,09,29,12,32,19.90
2018,09,29,12,33,19.90
2018,09,29,12,34,19.90
2018,09,29,12,35,19.90
2018,09,29,12,36,19.80
2018,09,29,12,37,19.80
2018,09,29,12,38,19.80
2018,09,29,12,39,19.80
2018,09,29,12,40,19.80
2018,09,29,12,41,19.80
2018,09,29,12,42,19.80
2018,09,29,12,43,19.80
2018,09,29,12,44,19.80
2018,09,29,12,45,19.80
2018,09,29,12,46,19.80
2018,09,29,12,47,19.80
2018,09,29,12,48,19.80
2018,09,29,12,49,19.80
2018,09,29,12,50,19.80
2018,09,29,12,51,19.80
2018,09,29,12,52,19.80
2018,09,29,12,53,19.80
2018,09,29,12,54,19.80
2018,09,29,12,55,19.80
2018,09,29,12,56,19.80
2018,09,29,12,57,19.80
2018,09,29,12,58,19.80
2018,09,29,12,59,19.80
2018,09,29,13,00,19.80
2018,09,29,13,01,19.90
2018,09,29,13,02,19.90
2018,09,29,13,03,19.90
2018,09,29,13,04,20.00
2018,09,29,13,05,20.00
2018,09,29,13,06,20.00
2018,09,29,13,07,20.00
2018,09,29,13,08,20.00
2018,09,29,13,09,20.00
2018,09,29,13,10,19.90
2018,09,29,13,11,19.90
2018,09,29,13,12,19.90
2018,09,29,13,13,19.80
2018,09,29,13,14,19.80
2018,09,29,13,15,19.80
2018,09,29,13,16,19.80
2018,09,29,13,17,19.80
2018,09,29,13,18,19.80
2018,09,29,13,19,19.70
2018,09,29,13,20,19.70
2018,09,29,13,21,19.70
2018,09,29,13,22,19.70
2018,09,29,13,23,19.70
2018,09,29,13,24,19.70
2018,09,29,13,25,19.70
2018,09,29,13,26,19.70
2018,09,29,13,27,19.70
2018,09,29,13,28,19.70
2018,09,29,13,29,19.70
2018,09,29,13,30,19.70
2018,09,29,13,31,19.70
2018,09,29,13,32,19.70
2018,09,29,13,33,19.80
2018,09,29,13,34,19.80
2018,09,29,13,35,19.80
2018,09,29,13,36,19.80
2018,09,29,13,37,19.80
2018,09,29,13,38,19.80
2018,09,29,13,39,19.80
2018,09,29,13,40,19.80
2018,09,29,13,41,19.70
2018,09,29,13,42,19.70
2018,09,29,13,43,19.70
2018,09,29,13,44,19.70
2018,09,29,13,45,19.80
2018,09,29,13,46,19.80
2018,09,29,13,47,19.80
2018,09,29,13,48,19.80
2018,09,29,13,49,19.80
2018,09,29,13,50,19.80
2018,09,29,13,51,19.80
2018,09,29,13,52,19.80
2018,09,29,13,53,19.80
2018,09,29,13,54,19.80
2018,09,29,13,55,19.80
2018,09,29,13,56,19.80
2018,09,29,13,57,19.70
2018,09,29,13,58,19.70
2018,09,29,13,59,19.70
2018,09,29,14,00,19.70
2018,09,29,14,01,19.70
2018,09,29,14,02,19.70
2018,09,29,14,03,19.70
2018,09,29,14,04,19.60
2018,09,29,14,05,19.60
2018,09,29,14,06,19.60
2018,09,29,14,07,19.60
2018,09,29,14,08,19.60
2018,09,29,14,09,19.60
2018,09,29,14,10,19.70
2018,09,29,14,11,19.70
2018,09,29,14,12,19.70
2018,09,29,14,13,19.70
2018,09,29,14,14,19.70
2018,09,29,14,15,19.70
2018,09,29,14,16,19.70
2018,09,29,14,17,19.70
2018,09,29,14,18,19.70
2018,09,29,14,19,19.70
2018,09,29,14,20,19.70
2018,09,29,14,21,19.80
2018,09,29,14,22,19.80
2018,09,29,14,23,19.80
2018,09,29,14,24,19.80
2018,09,29,14,25,19.90
2018,09,29,14,26,20.00
2018,09,29,14,27,20.10
2018,09,29,14,28,20.10
2018,09,29,14,29,20.20
2018,09,29,14,30,20.20
2018,09,29,14,31,20.20
2018,09,29,14,32,20.20
2018,09,29,14,33,20.20
2018,09,29,14,34,20.20
2018,09,29,14,35,20.20
2018,09,29,14,36,20.20
2018,09,29,14,37,20.20
2018,09,29,14,38,20.20
2018,09,29,14,39,20.10
2018,09,29,14,40,20.10
2018,09,29,14,41,20.10
2018,09,29,14,42,20.00
2018,09,29,14,43,19.90
2018,09,29,14,44,19.90
2018,09,29,14,45,19.80
2018,09,29,14,46,19.80
2018,09,29,14,47,19.80
2018,09,29,14,48,19.80
2018,09,29,14,49,19.90
2018,09,29,14,50,19.90
2018,09,29,14,51,20.00
2018,09,29,14,52,20.00
2018,09,29,14,53,20.00
2018,09,29,14,54,20.00
2018,09,29,14,55,20.00
2018,09,29,14,56,20.00
2018,09,29,14,57,19.90
2018,09,29,14,58,19.90
2018,09,29,14,59,19.90
2018,09,29,15,00,19.90
2018,09,29,15,01,19.90
2018,09,29,15,02,19.90
2018,09,29,15,03,19.90
2018,09,29,15,04,19.90
2018,09,29,15,05,19.90
2018,09,29,15,06,19.80
2018,09,29,15,07,19.80
2018,09,29,15,08,19.80
2018,09,29,15,09,19.80
2018,09,29,15,10,19.80
2018,09,29,15,11,19.80
2018,09,29,15,12,19.80
2018,09,29,15,13,19.80
2018,09,29,15,14,19.80
2018,09,29,15,15,19.80
2018,09,29,15,16,19.80
2018,09,29,15,17,19.80
2018,09,29,15,18,19.80
2018,09,29,15,19,19.80
2018,09,29,15,20,19.80
2018,09,29,15,21,19.70
2018,09,29,15,22,19.70
2018,09,29,15,23,19.70
2018,09,29,15,24,19.70
2018,09,29,15,25,19.60
2018,09,29,15,26,19.60
2018,09,29,15,27,19.60
2018,09,29,15,28,19.60
2018,09,29,15,29,19.60
2018,09,29,15,30,19.60
2018,09,29,15,31,19.60
2018,09,29,15,32,19.60
2018,09,29,15,33,19.60
2018,09,29,15,34,19.50
2018,09,29,15,35,19.50
2018,09,29,15,36,19.40
2018,09,29,15,37,19.40
2018,09,29,15,38,19.40
2018,09,29,15,39,19.40
2018,09,29,15,40,19.40
2018,09,29,15,41,19.30
2018,09,29,15,42,19.30
2018,09,29,15,43,19.30
2018,09,29,15,44,19.30
2018,09,29,15,45,19.30
2018,09,29,15,46,19.30
2018,09,29,15,47,19.30
2018,09,29,15,48,19.30
2018,09,29,15,49,19.30
2018,09,29,15,50,19.30
2018,09,29,15,51,19.30
2018,09,29,15,52,19.20
2018,09,29,15,53,19.20
2018,09,29,15,54,19.20
2018,09,29,15,55,19.20
2018,09,29,15,56,19.20
2018,09,29,15,57,19.20
2018,09,29,15,58,19.20
2018,09,29,15,59,19.20
2018,09,29,16,00,19.30
2018,09,29,16,01,19.30
2018,09,29,16,02,19.30
2018,09,29,16,03,19.30
2018,09,29,16,04,19.30
2018,09,29,16,05,19.30
2018,09,29,16,06,19.20
2018,09,29,16,07,19.20
2018,09,29,16,08,19.30
2018,09,29,16,09,19.30
2018,09,29,16,10,19.30
2018,09,29,16,11,19.30
2018,09,29,16,12,19.30
2018,09,29,16,13,19.30
2018,09,29,16,14,19.30
2018,09,29,16,15,19.30
2018,09,29,16,16,19.30
2018,09,29,16,17,19.30
2018,09,29,16,18,19.20
2018,09,29,16,19,19.20
2018,09,29,16,20,19.20
2018,09,29,16,21,19.20
2018,09,29,16,22,19.30
2018,09,29,16,23,19.30
2018,09,29,16,24,19.30
2018,09,29,16,25,19.30
2018,09,29,16,26,19.30
2018,09,29,16,27,19.30
2018,09,29,16,28,19.30
2018,09,29,16,29,19.30
2018,09,29,16,30,19.30
2018,09,29,16,31,19.30
2018,09,29,16,32,19.30
2018,09,29,16,33,19.30
2018,09,29,16,34,19.30
2018,09,29,16,35,19.30
2018,09,29,16,36,19.30
2018,09,29,16,37,19.30
2018,09,29,16,38,19.30
2018,09,29,16,39,19.30
2018,09,29,16,40,19.30
2018,09,29,16,41,19.30
2018,09,29,16,42,19.30
2018,09,29,16,43,19.30
2018,09,29,16,44,19.30
2018,09,29,16,45,19.30
2018,09,29,16,46,19.30
2018,09,29,16,47,19.30
2018,09,29,16,48,19.30
2018,09,29,16,49,19.30
2018,09,29,16,50,19.30
2018,09,29,16,51,19.30
2018,09,29,16,52,19.30
2018,09,29,16,53,19.30
2018,09,29,16,54,19.30
2018,09,29,16,55,19.30
2018,09,29,16,56,19.30
2018,09,29,16,57,19.30
2018,09,29,16,58,19.20
2018,09,29,16,59,19.20
2018,09,29,17,00,19.20
2018,09,29,17,01,19.20
2018,09,29,17,02,19.10
2018,09,29,17,03,19.10
2018,09,29,17,04,19.10
2018,09,29,17,05,19.10
2018,09,29,17,06,19.10
2018,09,29,17,07,19.10
2018,09,29,17,08,19.10
2018,09,29,17,09,19.10
2018,09,29,17,10,19.10
2018,09,29,17,11,19.10
2018,09,29,17,12,19.10
2018,09,29,17,13,19.10
2018,09,29,17,14,19.10
2018,09,29,17,15,19.10
2018,09,29,17,16,19.10
2018,09,29,17,17,19.10
2018,09,29,17,18,19.00
2018,09,29,17,19,19.00